TimeCDT,TemperatureF,Dew PointF,Humidity,Sea Level PressureIn,VisibilityMPH,Wind Direction,Wind SpeedMPH,Gust SpeedMPH,PrecipitationIn,Events,Conditions,WindDirDegrees,DateUTC
12:58 AM,78.6,65.3,64,29.91,10.0,NNE,13.8,-,N/A,,Clear,30,2013-09-02 05:58:00
1:58 AM,77.2,64.9,66,29.91,10.0,NNE,12.7,-,N/A,,Clear,30,2013-09-02 06:58:00
2:58 AM,75.7,65.5,70,29.91,10.0,NE,9.2,-,N/A,,Clear,40,2013-09-02 07:58:00
3:58 AM,74.7,65.1,72,29.91,10.0,NNE,11.5,-,N/A,,Clear,30,2013-09-02 08:58:00
4:58 AM,74.5,65.3,73,29.92,10.0,North,8.1,-,N/A,,Clear,10,2013-09-02 09:58:00
5:58 AM,74.8,65.8,73,29.93,10.0,NNE,12.7,-,N/A,,Clear,20,2013-09-02 10:58:00
6:19 AM,73.4,66.2,78,29.99,10.0,NE,10.4,-,N/A,,Light Drizzle,40,2013-09-02 11:19:00
6:29 AM,73.4,66.2,78,29.99,10.0,NNE,10.4,-,N/A,,Clear,30,2013-09-02 11:29:00
6:58 AM,72.3,66.4,82,29.96,10.0,NE,9.2,-,0.00,,Clear,40,2013-09-02 11:58:00
7:58 AM,72.9,67.8,84,29.99,10.0,NE,10.4,-,N/A,,Clear,50,2013-09-02 12:58:00
8:58 AM,76.6,69.4,78,29.99,10.0,NE,12.7,-,N/A,,Clear,40,2013-09-02 13:58:00
9:58 AM,80.8,70.9,72,30.01,10.0,NE,15.0,19.6,N/A,,Clear,40,2013-09-02 14:58:00
10:58 AM,86.0,70.5,60,30.02,10.0,ENE,10.4,-,N/A,,Clear,70,2013-09-02 15:58:00
11:58 AM,86.9,69.6,56,30.01,10.0,ENE,10.4,-,N/A,,Partly Cloudy,60,2013-09-02 16:58:00
12:23 PM,89.6,69.8,52,30.06,10.0,NE,9.2,-,N/A,,Scattered Clouds,40,2013-09-02 17:23:00
12:58 PM,91.6,68.7,47,29.99,10.0,ENE,9.2,16.1,N/A,,Partly Cloudy,60,2013-09-02 17:58:00
1:58 PM,92.7,65.5,41,29.97,10.0,North,11.5,-,N/A,,Clear,360,2013-09-02 18:58:00
2:58 PM,95.5,63.3,34,29.95,10.0,East,12.7,17.3,N/A,,Clear,90,2013-09-02 19:58:00
3:58 PM,95.9,59.4,30,29.92,10.0,East,9.2,-,N/A,,Clear,100,2013-09-02 20:58:00
4:58 PM,96.3,57.4,27,29.90,10.0,NNE,8.1,16.1,N/A,,Clear,20,2013-09-02 21:58:00
5:58 PM,96.1,57.9,28,29.89,10.0,ENE,6.9,-,N/A,,Clear,70,2013-09-02 22:58:00
6:58 PM,94.3,55.0,27,29.89,10.0,NE,10.4,-,N/A,,Clear,40,2013-09-02 23:58:00
7:58 PM,88.9,53.8,30,29.90,10.0,NE,10.4,-,N/A,,Clear,50,2013-09-03 00:58:00
8:58 PM,83.3,53.1,35,29.93,10.0,NE,10.4,-,N/A,,Clear,50,2013-09-03 01:58:00
9:58 PM,79.0,53.6,41,29.96,10.0,NE,9.2,-,N/A,,Clear,40,2013-09-03 02:58:00
10:58 PM,75.4,54.7,48,29.97,10.0,NNE,5.8,-,N/A,,Clear,30,2013-09-03 03:58:00
11:58 PM,69.8,53.8,57,29.98,10.0,NE,5.8,-,N/A,,Clear,50,2013-09-03 04:58:00